This is the latest recevied weather packets stored in our database for station/object K4MUW-4. If no packets are shown the sender has not sent any weather packets the latest 10 day(s).
| Time | Temp. | Humidity | Pressure | Rain* | Wind** | Luminosity | Snow |
|---|---|---|---|---|---|---|---|
| 1777538279 | 15° C | 88% | 1009 hPa | 0 mm | 1.79 m/s, 356° | - | - |
| 1777531964 | 17.22° C | 82% | 1009 hPa | 0 mm | 1.34 m/s, 18° | - | - |
| 1777530462 | 18.33° C | 76% | 1009 hPa | 0 mm | 0 m/s | - | - |
| 1777528959 | 18.89° C | 70% | 1010 hPa | 0 mm | 0 m/s | - | - |
| 1777528659 | 19.44° C | 69% | 1010 hPa | 0 mm | 0 m/s | - | - |
| 1777528358 | 19.44° C | 69% | 1010 hPa | 0 mm | 0 m/s | - | - |
| 1777527749 | 19.44° C | 70% | 1009 hPa | 0 mm | 1.79 m/s, 241° | - | - |
| 1777526848 | 20° C | 70% | 1009 hPa | 0 mm | 0 m/s | - | - |
| 1777526247 | 20° C | 69% | 1008 hPa | 0 mm | 0 m/s | - | - |
| 1777524444 | 20.56° C | 69% | 1009 hPa | 0 mm | 0 m/s | - | - |
| 1777523845 | 20.56° C | 69% | 1009 hPa | 0 mm | 1.34 m/s, 9° | - | - |
| 1777523539 | 20.56° C | 70% | 1009 hPa | 0 mm | 1.79 m/s, 345° | - | - |
| 1777522117 | 21.11° C | 71% | 1009 hPa | 0 mm | 0 m/s | - | - |
| 1777522038 | 21.11° C | 71% | 1009 hPa | 0 mm | 0 m/s | - | - |
| 1777521437 | 21.11° C | 70% | 1009 hPa | 0 mm | 0 m/s | - | - |
| 1777520236 | 21.67° C | 70% | 1009 hPa | 0 mm | 0 m/s | - | - |
| 1777519335 | 21.67° C | 71% | 1010 hPa | 0 mm | 0 m/s | - | - |
| 1777519034 | 21.67° C | 70% | 1009 hPa | 0 mm | 0 m/s | - | - |
| 1777518733 | 21.67° C | 71% | 1009 hPa | 0 mm | 0 m/s | - | - |
| 1777518433 | 21.67° C | 71% | 1009 hPa | 0 mm | 0 m/s | - | - |
| 1777517833 | 22.22° C | 72% | 1009 hPa | 0 mm | 1.34 m/s, 220° | - | - |
| 1777517232 | 22.22° C | 73% | 1009 hPa | 0 mm | 0 m/s | - | - |
| 1777516630 | 22.22° C | 72% | 1009 hPa | 0 mm | 1.34 m/s, 220° | - | - |
| 1777515430 | 21.67° C | 75% | 1009 hPa | 0 mm | 1.34 m/s, 216° | - | - |
| 1777514828 | 21.67° C | 77% | 1009 hPa | 0 mm | 0 m/s | - | - |
* Rain latest hour (hover to see other rain measurements)
** Current wind speed in m/s (hover to see current wind gust speed)